Regional Weather Roundup
Issued by NWS

Home | Current Version | Previous Version | Text Only | Print | Product List | Glossary On
Versions: 1 2 3 4 5 6 7 8 9 10 11 12 13 14 15 16 17 18 19 20 21 22 23 24 25 26 27 28 29 30 31 32 33 34 35 36 37 38 39 40 41 42 43 44 45 46 47 48 49 50
000
ASUS43 KLOT 050210
RWRIL

ILLINOIS REGIONAL WEATHER ROUNDUP
NATIONAL WEATHER SERVICE CHICAGO/ROMEOVILLE IL
800 PM CST WED MAR 04 2015

NOTE: "FAIR" INDICATES FEW OR NO CLOUDS BELOW 12,000 FEET WITH NO
SIGNIFICANT WEATHER AND/OR OBSTRUCTIONS TO VISIBILITY.

* THESE STATIONS ARE NOT UNDER NWS QUALITY CONTROL. THEY ALSO MAY NOT
  REPORT WEATHER SUCH AS PRECIPITATION OR FOG.

ILZ001-002-007-009-015-016-024-050300-
NORTHWEST ILLINOIS

CITY           SKY/WX    TMP DP  RH WIND       PRES   REMARKS
MOLINE         PTCLDY    15   0  51 NW9       30.37R WCI   3
STERLING*      CLEAR     12   1  62 NW8       30.32R WCI   1
SAVANNA*       CLEAR     12  -1  56 W5        30.35R WCI   4
$$

ILZ003-004-008-010-011-017-018-050300-
NORTH CENTRAL ILLINOIS

CITY           SKY/WX    TMP DP  RH WIND       PRES   REMARKS
ROCKFORD       PTCLDY    11  -3  53 W9        30.32R WCI  -2
FREEPORT*      CLEAR      9  -4  56 W7        30.32R WCI  -3
ROCHELLE*      CLEAR      9  -1  62 NW9       30.31R WCI  -4
DE KALB*       PTCLDY    10  -1  59 W12       30.29R WCI  -4
PERU*          PTCLDY    14   5  66 W8        30.34R WCI   3
$$

ILZ005-006-012>014-019>023-050300-
NORTHEAST ILLINOIS

CITY           SKY/WX    TMP DP  RH WIND       PRES   REMARKS
CHICAGO-OHARE  MOCLDY    15  -1  49 NW12      30.27R WCI   2
CHICAGO-MIDWAY MOCLDY    18   3  52 W9        30.29R WCI   7
AURORA         PTCLDY    11   0  61 W12       30.31R WCI  -3
LANSING*       CLOUDY    17   4  56 W8        30.28R WCI   7
JOLIET*        MOCLDY    15   0  52 NW6       30.31R WCI   6
WAUKEGAN       PTCLDY    13  -6  42 W3        30.26R
DUPAGE AIRPORT FAIR      13  -1  54 W12       30.27R WCI  -1
KANKAKEE*      MOCLDY    17   5  61 W9        30.29R WCI   5
WHEELING       PTCLDY    16  -1  47 W10       30.29R WCI   4
MORRIS*        MOCLDY    10   3  72 NW8       30.29R WCI  -1
ROMEOVILLE*    PTCLDY    14   1  58 NW12      30.30R WCI   0
NORTHERLY ISL    N/A     19  -4  36 NW9         N/A  WCI   8
$$

LMZ740>746-050300-
SOUTHERN LAKE MICHIGAN

STATION/POSITION SKY/WX   TEMP    WIND        PRES    VSBY  WAVE
                          AIR SEA DIR/SP/G                  HT/PER
                          (F)     (DEG/KT/KT) (MB)    (MI)  (FT/S)
WAUKEGAN HARBOR            17                   N/A
HARRISON CRIB              18     300/ 18/ 22   N/A
BURNHAM HARBOR             19     300/  5/ 15   N/A
CALUMET HARBOR             19     280/ 10/ 14 1023.5R
MICHIGAN CITY              18     270/ 11/ 13   N/A
$$

ILZ025>027-034>036-040-047-049-050-058-095>099-050300-
WEST-CENTRAL ILLINOIS

CITY           SKY/WX    TMP DP  RH WIND       PRES   REMARKS
QUINCY         MOCLDY    19   6  57 S3        30.36R
GALESBURG*     PTCLDY    14   5  68 CALM      30.36R
MACOMB*        MOCLDY    15   9  78 CALM      30.39R
JACKSONVILLE*  CLOUDY    20   8  59 NW5       30.37S WCI  13
PITTSFIELD*    CLOUDY    21   8  58 CALM      30.38S
$$

ILZ028>032-037-038-041>044-048-051>054-059>061-050300-
CENTRAL ILLINOIS

CITY           SKY/WX    TMP DP  RH WIND       PRES   REMARKS
PONTIAC        MOCLDY    16   8  71 W7        30.34R WCI   6
BLOOMINGTON    CLOUDY    17   5  59 NW9       30.34R WCI   6
DECATUR        CLOUDY    19   5  54 NW14      30.33R WCI   6
PEORIA         FAIR      17   2  51 NW5       30.36R WCI  10
LACON*         PTCLDY    15   3  60 W6        30.37R WCI   6
LINCOLN*       CLOUDY    20   3  47 N9G16     30.39R WCI  10
SPRINGFIELD    CLOUDY    20   5  52 N8        30.38R WCI  10
TAYLORVILLE    CLOUDY    19   9  63 N14       30.36R WCI   6
$$

ILZ033-039-045-046-055>057-062-063-050300-
EAST-CENTRAL ILLINOIS

CITY           SKY/WX    TMP DP  RH WIND       PRES   REMARKS
CHAMPAIGN      MOCLDY    17   7  64 NW17      30.30R WCI   1
DANVILLE*      MOCLDY    17   8  68 NW15      30.25R WCI   2
RANTOUL*       CLOUDY    19   6  57 NW13G18   30.31R WCI   6
MATTOON        CLOUDY    18   8  65 N17       30.30R WCI   3
PARIS*         MOCLDY    18  11  74 NW12      30.29R WCI   5
$$

ILZ079-100>102-050300-
SOUTHWEST ILLINOIS

CITY           SKY/WX    TMP DP  RH WIND       PRES   REMARKS
BELLEVILLE     MOCLDY    22   7  52 N13G23    30.34R WCI  10
CAHOKIA*       MOCLDY    23   5  46 N15       30.36R WCI  10
SPARTA*        CLOUDY    21   8  56 N16       30.34R WCI   7
$$

ILZ064>066-069>071-074>076-080>082-084>086-088>090-092>094-050300-
SOUTH-CENTRAL ILLINOIS

CITY           SKY/WX    TMP DP  RH WIND       PRES   REMARKS
CARBONDALE     CLOUDY    19  12  74 N7        30.31S WCI  10
CAIRO*         CLOUDY    22  20  93 N10       30.28S WCI  11
EFFINGHAM*     CLOUDY    20   4  49 NW10G17   30.33R WCI   9
MARION         LGT SNOW  19  16  86 CALM      30.31R
MT. VERNON     CLOUDY    21   7  53 N8        30.30R WCI  12
CENTRALIA*     CLOUDY    21   8  56 N14       30.31R WCI   8
SALEM*         CLOUDY    22   9  55 N13       30.32R WCI  10
METROPOLIS*    SNOW      20  20 100 N9        30.26S VSB 1/2 WCI  10
$$

ILZ067-068-072-073-078-083-087-091-050300-
SOUTHEAST ILLINOIS

CITY           SKY/WX    TMP DP  RH WIND       PRES   REMARKS
LAWRENCEVILLE  CLOUDY    21   9  59 N14       30.29R WCI   8
FLORA*         CLOUDY    21   7  56 N13G18    30.30R WCI   8
FAIRFIELD*     CLOUDY    21  10  63 N9        30.29R WCI  11
HARRISBURG*    LGT SNOW  18  16  92 N10       30.31R WCI   7
ROBINSON*      CLOUDY    20   9  62 N12       30.30S WCI   8
CARMI*         LGT SNOW  21  18  89 CALM      30.28R
$$

ABBREVIATIONS USED IN REMARKS
   TC - TEMPERATURE IN CELSIUS
  WCI - WIND CHILL INDEX
   HX - HEAT INDEX
  VSB - VISIBILITY
$$




USA.gov is the U.S. government's official web portal to all federal, state and local government web resources and services.